CZ-6A DEB, 54335

Orbit data source: Space-Track

CZ-6A DEB, 54335 is space debris in SSO originally from a launch on Fri, 11 Nov 2022 UTC launched from the Taiyaun Space Center, China (TSC). Debris objects in space refer to the collection of defunct objects orbiting the Earth. Examples of debris include non-operational satellites, rocket bodies, and fragments generated from explosions, collisions, or faulty payload assembly.

Loading next visibility...
Identifier
54335, 2022-151CE
Orbit
SSO
Country
Flag of CNCN / PRC
Related business
Manufacturer
SAST
Mission
Spacecraft
Bus & Motor
Unknown
Mass
Unknown
Launch date (UTC)
2022-11-11 (3 years ago)
Launch vehicle
Unknown
Launch site
Taiyaun Space Center, China (TSC)
Object type
Payload
Rocket body
Debris
Shape & HBR
Unknown shape, 0.2 m
Radar Cross Section
Small (<0.1 m²)

Expand to show TLE details & history
Last TLE update: 14 hours ago

TLE from 14 hours ago
0 CZ-6A DEB
1 54335U 22151CE  26129.97643598  .00000551  00000-0  31471-3 0  9992
2 54335  98.8210 131.2005 0050976  94.3350 266.3649 14.13061486179279
Epoch: 2026-05-09T23:26Z
TLE epoch observation values (Epoch: 2026-05-09T23:26:04.068Z)
Latitude
-0.00006°
Longitude
-88.10258°
Altitude
854.339 km
Speed
7.424 km/s
True Right ascension
08h 44m 48s
True Declination
0° 00' 00"
Sunlit
Object was in daylight at epoch
Visualization orbit readout
Latitude
Unknown
Longitude
Unknown
Altitude
Unknown
Speed
Unknown
Apparent Right ascension
Unknown
Apparent Declination
Unknown
Sunlit
N/A
Visualization observer readout
Local Sidereal Time
21:24:46
Azimuth
Unknown
Elevation
Unknown
Doppler factor
Unknown
Orbital elements
Apogee altitude
882.914 km
Perigee altitude
809.261 km
Semi-major axis
7,224.224 km
Eccentricity
0.0051
Inclination
98.821°
RAAN
131.2005°
Arg. of periapsis
94.335°
True anomaly
265.78218°
Mean anomaly
266.3649°
Eccentric anomaly
266.07351°
Mean motion
3.53473 °/min
Orbital period
101.85 mins
BSTAR
0.00031471
Loading maneuver chart data...
Computing Atmospheric mass density...
Loading historical data...
Loading historical data...
Loading historical data...
Loading historical data...
Loading historical data...
Loading historical data...
Loading historical data...

Documentation

Showing up to 5 results
|